Temp
86 87 82 83 84 83 82 83 84 84 83 84 83 84 83 84 84 84 84 84 84 84 85 85 85 84 84 84 84 83 84 83 84 84 83 83 83 83 83 83 85 91 82
91 90 82 83 83 83 83 84 84 83 83 83 84 84 84 83 83 83 84 84 84 84 84 84 84 85 84 84 83 83 83 83 83 83 83 84 83 83 83 84 85 87 83
91 91 89 83 83 83 84 84 84 83 83 83 83 84 84 83 83 84 84 84 84 84 85 84 84 84 84 84 84 84 83 83 83 83 85 96 91 83 83 83 82 82 82
93 91 90 81 83 83 84 84 84 84 84 84 84 83 83 84 84 84 84 84 84 85 84 84 84 84 84 83 83 83 83 83 82 83 94 96 93 83 83 83 82 82 82
93 94 89 83 83 84 83 83 83 84 84 84 84 84 84 84 84 84 84 84 84 84 84 84 84 84 84 83 83 83 83 83 82 89 92 94 95 85 83 82 82 82 82
93 93 86 84 84 83 84 83 84 83 83 84 84 84 84 84 84 84 84 84 84 84 84 84 84 84 84 84 83 84 83 82 84 94 94 91 93 82 83 83 83 82 82
93 93 91 83 83 84 84 84 84 83 84 84 84 84 84 84 84 84 84 84 84 84 84 84 85 85 84 84 83 83 82 82 94 93 92 93 90 82 82 82 82 82 81
95 94 92 84 83 84 84 84 84 84 84 84 84 84 84 84 84 84 84 84 84 84 84 84 85 85 84 84 83 83 82 83 94 93 93 94 81 82 82 82 82 81 81
95 94 93 92 87 84 84 84 84 84 84 84 84 84 84 84 84 84 84 84 84 84 84 85 85 85 84 84 83 83 83 83 98 95 97 96 79 82 82 81 81 81 81
94 95 93 92 93 81 89 84 84 84 84 84 84 83 84 84 85 84 83 84 85 85 85 85 85 85 84 84 83 83 83 84 100 97 96 92 80 81 82 82 81 81 81
91 93 95 93 86 86 93 89 85 84 84 84 86 83 87 97 96 96 84 85 85 85 85 85 85 85 85 84 84 84 83 99 100 100 100 80 79 80 81 81 81 81 80
90 92 94 92 92 94 96 92 92 94 96 93 92 92 97 95 94 96 91 85 85 84 85 85 85 85 85 105 98 87 103 101 102 101 98 81 80 81 82 82 81 81 81
92 93 93 94 90 96 94 96 97 97 96 94 90 92 93 95 95 99 98 99 98 92 101 99 99 103 99 103 103 103 102 104 104 103 89 81 81 82 82 82 82 82 81
91 92 91 92 88 92 95 96 95 96 96 97 94 92 93 97 95 96 97 97 97 99 97 98 101 99 101 100 100 100 105 105 104 105 94 82 81 82 82 82 82 82 82
89 91 87 82 88 90 89 92 94 95 96 96 96 93 97 96 93 96 96 98 98 99 99 98 98 98 98 102 102 101 103 104 105 106 105 83 82 81 82 82 82 82 82
89 91 82 88 89 91 90 88 92 95 95 97 99 96 94 96 92 97 98 98 98 98 99 98 97 98 100 103 101 101 101 105 104 101 106 101 82 81 82 82 82 82 82
91 92 82 91 91 89 88 89 92 95 98 97 98 94 94 94 92 91 97 98 98 98 97 98 98 100 101 103 100 102 105 102 104 101 102 104 100 80 82 81 82 82 82
91 89 91 94 93 91 90 91 94 96 96 97 98 98 95 94 93 93 98 98 95 98 99 99 98 98 99 100 100 102 102 103 101 101 103 103 105 105 87 82 81 81 81
91 89 89 90 92 91 89 91 91 91 93 97 98 98 95 95 95 93 97 97 94 98 98 97 97 96 96 97 101 102 102 102 103 105 101 100 101 101 104 86 81 81 82
92 90 89 90 90 89 91 89 93 94 95 97 97 98 96 97 94 93 96 94 94 96 97 95 91 95 96 97 100 101 101 103 103 103 102 105 106 102 103 100 100 100 81
92 90 89 88 87 88 89 90 91 92 94 96 97 95 94 94 94 92 96 96 95 93 92 91 93 92 95 97 94 98 100 103 103 105 104 104 102 103 100 102 101 103 102
92 90 89 88 87 87 91 90 92 93 95 96 96 94 94 94 94 93 91 94 93 94 91 91 89 91 95 97 90 92 90 96 103 101 102 102 101 104 103 102 99 98 99
92 91 90 88 88 88 89 91 90 90 91 92 94 94 96 94 93 93 92 92 91 91 94 92 91 89 90 94 92 89 86 86 92 99 99 101 97 100 101 101 101 99 98
94 95 92 89 88 89 88 89 85 85 86 90 94 95 94 93 93 94 93 92 91 94 91 92 94 90 89 89 94 97 92 89 84 85 96 99 100 98 99 100 100 100 99
96 96 94 91 89 89 88 86 87 85 91 93 93 90 90 90 91 93 93 91 90 92 92 90 89 89 92 91 91 92 91 92 92 89 86 92 98 100 101 101 100 101 101
92 94 94 90 87 87 86 81 81 80 82 81 88 86 90 94 95 93 92 90 90 90 90 91 90 89 88 90 92 91 90 89 90 90 88 89 91 96 100 101 99 99 100
MSLP
1016.50 1016.79 1017.15 1017.10 1016.95 1016.86 1017.25 1017.33 1017.33 1017.45 1017.45 1017.42 1017.52 1017.43 1017.47 1017.42 1017.47 1017.51 1017.56 1017.58 1017.57 1017.55 1017.63 1017.63 1017.76 1017.91 1017.83 1017.87 1017.82 1017.91 1017.95 1018.01 1018.15 1018.25 1018.39 1018.53 1018.65 1018.70 1018.59 1018.58 1018.18 1018.19 1019.02
1016.15 1016.71 1017.28 1017.26 1017.18 1017.25 1017.44 1017.47 1017.56 1017.73 1017.79 1017.69 1017.78 1017.78 1017.91 1017.74 1017.87 1017.88 1017.91 1017.79 1017.83 1017.81 1017.95 1018.04 1017.99 1018.08 1018.16 1018.22 1018.28 1018.28 1018.42 1018.39 1018.49 1018.56 1018.50 1018.46 1018.83 1018.80 1018.86 1018.75 1018.47 1018.95 1019.25
1016.25 1016.74 1017.08 1017.57 1017.51 1017.59 1017.65 1017.77 1017.81 1017.90 1017.91 1018.00 1017.99 1018.06 1018.23 1018.19 1018.05 1018.07 1018.11 1018.11 1018.12 1018.17 1018.22 1018.29 1018.32 1018.43 1018.42 1018.52 1018.60 1018.56 1018.61 1018.64 1018.75 1018.53 1018.10 1017.20 1018.42 1019.10 1019.07 1019.13 1019.31 1019.50 1019.47
1016.22 1016.72 1017.08 1017.84 1017.77 1017.87 1017.94 1017.97 1018.16 1018.33 1018.38 1018.30 1018.38 1018.32 1018.39 1018.34 1018.37 1018.40 1018.40 1018.42 1018.46 1018.44 1018.53 1018.62 1018.64 1018.68 1018.71 1018.75 1018.76 1018.81 1018.92 1019.00 1018.95 1018.47 1017.34 1017.40 1018.21 1019.40 1019.42 1019.47 1019.56 1019.61 1019.64
1016.29 1016.60 1017.65 1017.97 1018.12 1018.14 1018.34 1018.40 1018.58 1018.54 1018.66 1018.60 1018.57 1018.54 1018.56 1018.50 1018.53 1018.63 1018.68 1018.74 1018.78 1018.79 1018.82 1018.89 1018.89 1018.91 1018.89 1018.93 1018.96 1018.96 1019.08 1019.14 1018.90 1018.16 1018.01 1017.68 1017.92 1019.48 1019.66 1019.71 1019.77 1019.76 1019.73
1016.37 1016.85 1018.05 1018.19 1018.35 1018.47 1018.47 1018.72 1018.74 1018.72 1018.86 1018.81 1018.79 1018.79 1018.75 1018.72 1018.69 1018.82 1018.96 1019.05 1019.04 1019.07 1019.10 1019.08 1019.06 1019.07 1019.02 1019.00 1019.07 1019.02 1019.13 1019.11 1018.78 1018.01 1017.92 1018.47 1018.30 1019.70 1019.81 1019.90 1019.93 1019.95 1020.03
1016.53 1017.07 1017.76 1018.45 1018.66 1018.64 1018.83 1018.95 1019.02 1018.96 1019.03 1019.08 1019.01 1019.07 1018.96 1018.89 1018.88 1019.03 1019.14 1019.20 1019.22 1019.23 1019.25 1019.26 1019.26 1019.19 1019.13 1019.08 1019.16 1019.25 1019.36 1019.19 1018.11 1018.41 1018.47 1018.22 1019.21 1019.97 1019.97 1020.05 1020.13 1020.19 1020.26
1016.46 1016.92 1017.78 1018.71 1018.80 1018.84 1019.04 1019.17 1019.22 1019.15 1019.28 1019.27 1019.21 1019.26 1019.22 1019.19 1019.16 1019.26 1019.33 1019.36 1019.37 1019.40 1019.41 1019.42 1019.39 1019.33 1019.23 1019.21 1019.21 1019.29 1019.38 1019.11 1018.30 1018.55 1018.59 1018.63 1020.02 1020.14 1020.09 1020.12 1020.27 1020.35 1020.41
1016.73 1017.05 1017.57 1018.16 1018.79 1019.10 1019.12 1019.32 1019.44 1019.47 1019.52 1019.50 1019.51 1019.53 1019.50 1019.40 1019.41 1019.46 1019.47 1019.49 1019.49 1019.53 1019.52 1019.48 1019.46 1019.41 1019.31 1019.22 1019.27 1019.31 1019.34 1019.00 1017.90 1018.34 1018.23 1018.55 1020.15 1020.10 1020.16 1020.26 1020.30 1020.37 1020.47
1016.79 1017.04 1017.47 1018.02 1018.22 1019.05 1018.94 1019.57 1019.71 1019.71 1019.69 1019.68 1019.69 1019.75 1019.56 1019.36 1019.32 1019.32 1019.39 1019.56 1019.55 1019.52 1019.48 1019.48 1019.48 1019.46 1019.33 1019.22 1019.23 1019.26 1019.20 1018.68 1017.74 1018.14 1018.51 1019.22 1020.14 1020.12 1020.15 1020.22 1020.33 1020.45 1020.52
1017.11 1017.31 1017.38 1018.13 1018.92 1019.15 1018.49 1019.44 1019.65 1019.74 1019.74 1019.73 1019.63 1019.66 1019.13 1018.58 1018.54 1018.57 1019.50 1019.60 1019.54 1019.44 1019.39 1019.37 1019.36 1019.36 1019.11 1018.97 1019.05 1019.06 1018.79 1018.17 1017.87 1018.04 1018.15 1019.70 1020.04 1020.12 1020.09 1020.17 1020.27 1020.42 1020.50
1016.96 1017.36 1017.54 1018.38 1018.46 1018.39 1018.35 1019.09 1019.17 1019.14 1018.96 1019.32 1019.50 1019.32 1018.68 1018.96 1019.08 1018.71 1019.11 1019.40 1019.32 1019.17 1019.07 1019.04 1019.06 1018.91 1018.61 1017.25 1017.88 1018.45 1017.40 1017.79 1017.76 1017.98 1018.40 1019.70 1019.95 1020.00 1019.91 1020.04 1020.16 1020.30 1020.34
1016.71 1017.33 1017.76 1018.04 1018.73 1018.15 1018.46 1018.65 1018.69 1018.82 1019.07 1019.41 1019.69 1019.43 1019.38 1018.97 1019.03 1018.55 1018.50 1018.51 1018.41 1018.55 1017.85 1017.96 1017.92 1017.56 1017.78 1017.31 1017.25 1017.28 1017.59 1017.41 1017.46 1017.83 1018.83 1019.53 1019.77 1019.80 1019.87 1019.92 1019.95 1020.04 1020.12
1016.69 1017.23 1017.95 1018.11 1019.09 1018.66 1018.73 1018.64 1018.84 1018.83 1019.10 1018.91 1019.43 1019.63 1019.46 1018.79 1018.97 1018.79 1018.76 1018.60 1018.56 1018.43 1018.43 1018.26 1017.88 1018.12 1017.74 1017.64 1017.59 1017.46 1017.01 1017.17 1017.38 1017.63 1018.33 1019.11 1019.46 1019.60 1019.61 1019.75 1019.72 1019.79 1019.77
1016.77 1017.25 1018.07 1019.22 1019.00 1018.97 1019.29 1019.20 1019.16 1018.95 1018.94 1019.16 1019.29 1019.72 1019.38 1019.08 1019.21 1018.97 1019.08 1018.70 1018.69 1018.54 1018.46 1018.32 1018.16 1018.09 1017.78 1017.32 1017.30 1017.31 1016.85 1016.94 1017.05 1017.39 1017.46 1018.52 1018.98 1019.26 1019.29 1019.26 1019.33 1019.42 1019.46
1016.96 1017.35 1018.70 1018.87 1018.94 1019.11 1019.25 1019.59 1019.44 1019.32 1019.29 1019.24 1019.25 1019.45 1019.68 1019.31 1019.62 1019.06 1018.85 1018.67 1018.63 1018.78 1018.72 1018.57 1018.47 1018.00 1017.55 1017.17 1017.27 1017.33 1017.22 1016.83 1016.98 1017.19 1016.94 1017.32 1018.23 1018.62 1018.87 1018.84 1018.86 1018.87 1018.95
1016.86 1017.26 1018.60 1018.35 1018.67 1019.15 1019.45 1019.49 1019.42 1019.27 1018.87 1019.17 1019.21 1019.71 1019.78 1019.72 1019.73 1019.70 1018.96 1018.80 1018.84 1018.83 1018.73 1018.49 1018.28 1017.81 1017.55 1017.12 1017.20 1016.92 1016.65 1016.89 1016.66 1016.92 1016.91 1016.72 1016.93 1017.76 1018.02 1018.26 1018.35 1018.35 1018.37
1016.92 1017.51 1017.86 1017.96 1018.34 1018.87 1019.26 1019.48 1019.23 1019.18 1019.19 1019.05 1019.09 1019.29 1019.69 1019.74 1019.77 1019.54 1018.99 1018.92 1019.41 1018.83 1018.50 1018.39 1018.32 1018.09 1017.86 1017.57 1017.28 1016.93 1016.82 1016.58 1016.68 1016.68 1016.57 1016.48 1016.26 1016.19 1017.02 1017.27 1017.60 1017.84 1017.90
1017.02 1017.65 1018.05 1018.33 1018.41 1018.77 1019.20 1019.23 1019.45 1019.52 1019.36 1019.00 1018.99 1019.00 1019.44 1019.62 1019.63 1019.74 1019.12 1019.16 1019.60 1018.91 1018.64 1018.73 1018.55 1018.52 1018.12 1017.94 1017.24 1016.85 1016.83 1016.50 1016.30 1015.96 1016.33 1016.34 1016.27 1016.31 1015.90 1016.49 1016.95 1017.18 1017.29
1016.93 1017.61 1018.13 1018.51 1018.68 1019.00 1019.02 1019.38 1019.02 1018.93 1018.96 1018.91 1018.87 1018.81 1019.21 1019.23 1019.59 1019.67 1019.21 1019.40 1019.60 1018.94 1018.75 1018.97 1019.23 1018.81 1018.38 1018.02 1017.56 1016.91 1016.74 1016.40 1016.12 1016.03 1015.98 1015.55 1015.40 1015.91 1015.78 1015.90 1016.00 1015.65 1016.46
1016.54 1017.25 1017.88 1018.32 1018.67 1018.98 1019.05 1018.95 1018.84 1018.60 1018.51 1018.48 1018.53 1018.91 1019.29 1019.33 1019.40 1019.53 1019.09 1018.96 1019.21 1019.16 1019.30 1019.49 1019.09 1018.63 1018.31 1018.06 1017.85 1016.80 1016.49 1016.00 1015.94 1015.66 1015.68 1015.47 1015.65 1015.66 1015.94 1015.89 1015.80 1015.49 1015.34
1016.15 1016.88 1017.49 1017.93 1018.43 1018.84 1018.77 1018.80 1018.72 1018.64 1018.45 1018.34 1018.37 1018.77 1019.08 1019.18 1019.27 1019.33 1019.40 1019.02 1018.99 1019.05 1019.19 1019.35 1019.37 1019.06 1018.29 1017.89 1018.13 1017.45 1016.30 1015.99 1015.30 1016.00 1015.96 1015.85 1015.84 1015.36 1015.33 1015.39 1015.80 1015.81 1015.63
1015.61 1016.29 1016.88 1017.62 1018.07 1018.53 1018.69 1018.77 1018.89 1018.94 1018.93 1018.53 1018.34 1018.40 1018.27 1018.75 1018.99 1019.01 1019.11 1019.11 1019.10 1019.14 1018.62 1018.88 1018.97 1019.08 1018.47 1018.23 1018.20 1018.09 1017.08 1016.28 1016.24 1016.01 1015.69 1015.76 1016.14 1015.84 1015.42 1015.24 1015.10 1015.45 1015.55
1014.87 1015.54 1016.33 1017.07 1017.69 1018.20 1018.60 1018.51 1018.75 1018.86 1018.66 1017.97 1018.12 1018.11 1018.40 1018.59 1018.57 1018.53 1018.57 1018.71 1018.77 1018.44 1018.50 1018.63 1018.48 1018.78 1018.82 1018.09 1017.71 1017.48 1017.78 1017.86 1017.13 1016.25 1015.81 1015.46 1015.35 1015.22 1015.13 1015.27 1014.99 1014.85 1014.91
1014.49 1014.96 1015.75 1016.71 1017.36 1017.80 1018.07 1018.43 1018.46 1018.51 1018.25 1018.05 1018.20 1018.50 1018.53 1018.48 1018.42 1018.33 1018.23 1018.30 1018.40 1018.27 1018.03 1018.23 1018.34 1018.37 1018.17 1018.04 1017.74 1017.32 1017.25 1017.21 1016.90 1016.41 1015.54 1015.30 1014.91 1014.77 1014.53 1014.64 1014.61 1014.53 1014.34
1014.92 1015.19 1015.47 1016.52 1017.51 1017.99 1018.57 1018.95 1018.84 1018.82 1018.93 1018.98 1018.50 1018.60 1018.47 1017.68 1017.48 1017.60 1017.89 1018.03 1018.06 1017.97 1017.93 1017.91 1017.93 1017.97 1017.92 1017.58 1017.32 1017.35 1017.15 1016.79 1016.36 1016.05 1015.64 1015.29 1014.91 1014.64 1014.19 1014.24 1014.39 1014.32 1013.99
Wind_Speed
8 10 8 8 9 11 12 13 13 13 13 13 13 13 13 14 14 14 14 14 15 14 15 15 15 14 15 13 13 13 15 14 14 14 14 14 12 12 10 7 11 15 12
11 12 8 9 10 11 11 14 13 12 13 14 14 14 13 14 14 14 13 14 13 15 15 14 15 15 14 13 14 14 14 13 13 11 12 15 11 11 10 10 12 13 12
12 12 12 9 11 10 13 13 12 12 13 14 14 14 13 13 14 14 13 13 13 15 14 14 14 14 14 13 13 12 13 13 11 4 6 8 13 10 11 12 12 11 12
11 10 13 9 11 11 12 12 11 11 14 14 14 14 12 13 13 13 14 14 13 13 14 13 13 12 11 10 10 11 11 10 6 5 2 9 12 10 10 10 10 9 11
11 12 12 11 12 11 9 11 11 12 14 13 13 13 13 13 13 12 12 13 12 12 12 12 11 10 10 7 6 6 7 8 2 4 7 7 10 9 8 7 10 7 5
11 13 11 11 11 10 9 11 11 13 13 13 12 12 10 12 13 13 12 11 12 11 11 10 10 9 8 6 5 8 8 3 8 7 8 6 12 9 7 7 7 7 7
12 13 13 10 10 9 8 10 10 14 13 12 12 11 13 16 13 13 12 12 11 11 9 9 8 8 9 10 11 9 7 2 5 7 5 8 11 5 6 7 6 6 6
12 11 12 10 8 8 9 9 12 13 12 11 12 11 14 14 14 13 12 11 10 9 8 7 6 7 9 9 10 8 5 4 6 6 6 6 8 5 4 6 4 4 4
11 10 11 11 9 7 7 9 12 11 10 10 9 9 10 11 12 11 11 10 8 7 5 4 4 5 6 7 7 6 6 4 5 6 6 7 7 3 4 4 3 3 3
10 10 9 8 11 4 9 10 10 10 9 8 7 7 4 10 9 7 10 8 5 4 2 1 1 3 3 5 6 5 5 8 8 5 5 8 5 3 3 3 3 2 1
8 8 9 9 9 5 7 9 10 9 7 5 7 3 7 7 8 9 8 5 3 1 1 2 2 1 4 5 7 4 9 6 4 4 5 8 3 0 1 1 1 1 2
12 10 8 12 11 8 6 5 5 5 6 6 5 4 7 6 6 5 6 3 2 3 6 6 5 9 12 3 7 10 2 6 3 4 6 7 3 2 2 2 2 2 3
12 9 9 12 3 7 6 4 4 4 4 5 4 5 6 5 6 6 5 5 5 0 5 3 4 2 5 5 3 4 3 2 4 3 8 6 4 4 4 4 4 4 4
13 12 9 12 7 5 4 3 5 4 4 4 5 3 3 3 4 4 5 5 5 5 6 5 5 5 6 4 5 6 2 2 3 1 8 9 7 7 7 7 7 6 7
12 13 8 7 7 5 3 5 2 4 4 4 3 4 3 4 4 5 4 5 5 5 6 6 6 6 5 4 5 5 6 4 3 1 0 13 10 10 10 10 10 10 10
12 14 12 12 8 6 3 3 2 2 4 3 2 4 2 4 4 3 3 4 5 6 6 6 6 6 5 5 5 6 5 3 2 4 3 6 13 13 12 13 13 13 13
11 12 12 12 9 7 5 5 3 3 4 3 2 2 2 4 4 5 4 4 6 4 5 4 5 4 5 5 5 4 3 4 5 5 5 4 7 16 15 14 14 14 15
11 11 12 10 11 9 6 4 2 2 3 3 4 3 1 3 3 4 4 4 6 5 4 5 5 6 6 6 5 5 6 5 5 5 5 5 4 5 13 16 15 14 15
10 11 11 10 10 9 7 5 4 3 5 3 4 5 4 4 4 6 5 5 6 5 4 5 5 5 5 5 8 5 6 6 6 7 6 6 6 6 6 10 13 13 14
11 11 11 10 8 7 5 5 5 4 5 4 4 5 3 4 3 4 5 4 6 6 5 6 6 6 7 5 9 7 7 6 5 4 6 5 3 5 6 5 4 5 14
11 12 12 12 11 8 7 6 6 6 5 5 5 5 5 5 5 4 6 4 4 5 5 7 7 8 7 6 9 7 7 6 5 4 6 5 6 5 4 2 3 4 1
12 11 12 13 12 11 8 6 5 4 4 5 4 4 6 7 7 7 6 6 4 5 5 5 5 7 8 3 7 9 7 7 3 7 5 7 6 5 5 4 5 4 5
13 14 13 13 12 12 11 7 6 6 5 6 6 6 6 6 7 8 8 7 6 6 6 4 6 5 7 7 2 5 9 8 10 9 7 3 5 8 7 7 4 5 6
13 13 14 14 13 11 11 10 8 7 8 6 4 5 6 8 9 10 9 8 7 8 7 7 7 5 6 8 7 7 3 7 9 10 8 9 7 7 7 8 9 8 7
10 11 11 11 11 11 11 12 8 9 7 6 5 6 7 8 8 9 10 9 9 8 9 8 8 8 7 7 8 7 7 8 9 9 10 9 8 9 7 9 9 10 8
8 8 8 9 8 6 8 7 10 10 8 6 8 7 10 8 6 7 8 9 10 11 11 10 11 11 10 9 8 7 8 9 9 10 10 11 12 11 9 8 8 9 7
Wind_Direction
123 106 80 93 97 99 95 98 98 99 106 101 97 95 94 93 93 89 88 87 85 88 92 96 94 96 88 86 88 91 94 95 92 93 96 92 92 89 98 97 153 101 102
127 106 94 101 95 98 100 95 98 102 103 99 93 90 89 92 89 89 90 87 95 91 93 95 90 90 93 86 85 82 84 89 93 98 112 108 87 97 79 54 55 98 105
120 125 111 99 99 98 94 93 89 89 84 83 81 83 88 86 79 91 89 85 84 88 87 88 87 89 83 82 83 79 79 83 90 104 221 91 93 89 84 86 91 100 101
122 121 102 104 102 101 102 98 93 90 84 83 79 76 85 81 80 82 81 91 85 90 89 88 86 83 79 72 72 82 80 82 86 262 151 91 90 88 96 96 91 92 100
133 117 102 99 95 92 86 98 93 91 87 84 83 81 83 89 85 82 82 82 85 85 86 86 83 74 65 63 72 84 101 91 168 192 95 51 99 97 99 109 124 115 65
127 109 111 96 89 97 93 96 94 93 92 83 82 78 74 94 90 88 84 86 89 89 87 83 73 61 50 45 86 73 112 122 257 86 102 107 64 105 107 84 86 94 94
136 122 117 97 97 105 101 95 97 90 84 85 81 75 77 79 85 86 87 89 92 91 88 82 72 59 53 64 98 86 93 33 56 82 85 41 76 63 104 101 97 81 101
125 123 126 105 90 104 101 99 93 86 83 78 74 65 72 77 79 84 89 90 91 93 94 88 74 62 63 89 96 95 88 323 110 88 92 83 73 67 82 103 88 82 71
132 130 132 123 109 107 103 87 86 87 85 79 75 74 74 77 84 89 86 88 94 97 97 91 77 71 72 88 115 115 97 292 70 84 94 99 94 75 80 76 80 76 75
144 135 125 125 106 127 162 95 94 86 83 82 80 73 113 113 119 120 135 84 85 97 105 111 99 85 90 97 144 108 159 216 76 102 96 83 89 58 69 61 59 64 26
152 144 145 124 107 184 114 115 133 115 110 140 142 109 212 64 68 94 75 51 26 360 267 250 239 235 227 169 140 172 228 67 57 76 82 104 115 21 328 337 341 346 329
164 162 153 142 155 159 124 122 109 124 80 62 57 36 76 67 57 44 86 127 168 224 212 214 222 228 240 117 145 196 95 91 89 71 78 117 152 195 265 283 289 286 276
169 162 174 135 202 151 118 143 143 132 134 119 86 20 59 37 22 53 64 64 62 42 56 156 145 30 61 5 68 51 43 66 73 80 98 141 180 213 235 250 246 250 258
174 171 182 127 179 149 137 161 128 142 140 155 83 59 59 67 58 36 37 54 45 50 31 22 22 13 11 29 14 2 338 20 70 54 128 166 193 217 232 234 240 240 246
174 164 144 128 188 141 188 102 77 140 164 104 151 92 36 34 29 39 48 46 40 36 32 19 20 23 357 44 23 12 2 20 15 320 352 172 200 213 225 235 237 237 234
179 165 123 184 166 162 153 160 152 145 136 190 159 78 86 358 23 27 44 37 43 32 21 18 4 10 14 24 47 28 341 344 10 325 302 173 193 210 220 230 236 238 240
173 166 170 185 174 173 174 180 184 195 156 203 191 179 6 338 31 327 19 6 21 16 356 19 345 14 10 2 26 23 353 18 337 330 290 278 188 202 212 222 232 239 243
170 173 178 188 174 176 168 195 228 188 230 220 214 215 215 308 1 300 325 354 7 332 342 346 358 348 12 360 345 351 344 327 360 284 271 290 267 283 195 209 217 235 246
167 172 186 191 185 180 178 203 215 226 247 238 228 224 177 274 318 318 312 344 332 313 320 330 345 347 349 346 311 351 331 334 329 336 321 292 271 270 291 174 199 224 240
168 177 185 190 201 193 201 215 224 220 231 244 240 248 211 240 279 295 306 327 312 302 304 3 331 337 308 336 321 321 318 334 334 339 328 290 335 308 288 315 279 231 218
176 182 191 196 193 202 204 216 222 239 233 241 254 251 263 258 260 270 283 298 305 276 339 302 307 299 308 343 304 319 308 302 321 2 351 355 14 32 44 22 270 337 182
184 191 197 205 202 207 208 220 254 269 268 298 312 310 267 267 271 262 270 293 320 307 269 291 305 308 301 344 321 314 305 304 206 335 341 319 22 342 353 4 339 328 319
199 198 201 206 211 213 232 213 219 249 267 238 232 232 233 254 267 263 265 269 285 271 281 290 275 291 299 314 260 307 312 315 331 306 309 289 337 324 328 326 284 316 312
208 202 208 204 208 208 212 235 232 236 249 314 294 285 308 285 274 269 254 258 259 282 294 267 241 266 279 292 294 284 305 304 301 304 304 301 276 243 310 290 315 304 310
211 211 205 208 213 219 207 231 224 237 269 246 267 289 270 273 269 271 271 266 263 260 266 254 263 239 261 271 289 297 291 287 263 274 294 290 296 288 291 298 317 304 310
215 228 201 198 218 216 231 240 252 251 259 285 291 315 300 285 275 253 262 265 267 269 263 262 262 253 254 269 266 271 274 276 283 288 291 295 297 295 289 309 302 308 299